星链-3788 (STARLINK-3788 )

导读 | 豆包AI

STARLINK-3788是美国太空探索技术公司SpaceX星链卫星互联网项目的组成部分,于2022年4月21日发射入轨。它属于星链的低轨通信卫星星座,运行在近地轨道,旨在为全球提供覆盖广泛、低延迟的高速互联网接入服务,推进星链项目全球组网的进程。

Basic Information
目录编号:
52271
目录名称:
STARLINK-3788
国际标识:
2022-041L
轨道中心:
EARTH
卫星名称:
星链-3788
卫星全名:
星链-3788 (STARLINK-3788 )
卫星状态:
在轨 (已飞行1424 天)
发射日期:
2022-04-21 UTC
国别 :
美国 (US)
星等 :
--
Orbit Information
数据来源 国际轨道数据 AOE轨道数据
星历时间 2026-03-14T17:25:46+0800
15小时前
查看轨道信息
2026-03-12T08:00:00+0800
3天前
查看轨道信息
半长轴 6917.892km 6917.848km
偏心率 0.0001175 0.0001159
轨道倾角 53.217° 53.216°
近地点辐角 92.062° 89.484°
升交点赤经 88.007° 98.750°
平近点角 268.051° 225.793°
近地点 538.942km 538.909km
远地点 540.568km 540.513km
周期 95.438分钟 95.437分钟
每日圈数 15.088363 15.088507
Detailed Information
固有亮度:
5
最大亮度:
2.5
卫星平台:
Starlink v1.5
覆盖范围:
全球
运营商:
太空探索技术公司
运营商所在国:
美国
制造商(研发单位):
太空探索技术公司
制造商所在国:
美国
使用方式:
暂无
Satellite Introduction
星链(Starlink)计划是由太空探索技术公司(SpaceX)提出的一个巨型低轨卫星互联网星座项目,计划在2019年至2024年间在太空搭建由约1.2万颗卫星组成的“星链”网络,其中1584颗将部署在地球上空550千米处的近地轨道,并从2020年开始工作。该卫星仍在工作。
2D Orbit Map
3D Orbit Map
Orbit Altitude Analysis Chart
Orbit Inclination Analysis Chart
Orbit Comprehensive Analysis Chart
View Comprehensive Chart